DW8453 Bekkjarvik NO current weather conditions

sailwx.info

Wind from 338 at 4 knots gusting 4

Air temperature 15.6° C
Dewpoint 13.2° C

Last reported at 2016-Aug-24 20:52 UTC.
Time now 2016-Aug-24 21:25 UTC

Location: N 60°01' E 005°12'.
View on Google Maps.

See reports from other nearby stations

  
Tides and Currents Weather Stations Pressure Air Temp Water Temp Dewpoint Dewpoint Depression Visibility Wind Speed Wind Dir Waves Ship Positions
date/time (UTC)wind fromknots sea level pressurealtimeterstation pressurevisibilityair tempwater tempwave heightnotes
2016-Aug-24 20:52 338 4 gusting 4 15.6
2016-Aug-24 20:42 294 1 gusting 5 15.6
2016-Aug-24 20:32 312 1 gusting 5 16.1
2016-Aug-24 20:22 338 2 gusting 6 16.1
2016-Aug-24 20:12 343 2 gusting 2 16.1
2016-Aug-24 20:02 135 1 gusting 1 16.1
2016-Aug-24 19:52 084 16.1
2016-Aug-24 19:42 068 16.1
2016-Aug-24 19:32 135 1 gusting 1 16.1
2016-Aug-24 19:22 135 1 gusting 1 16.1
2016-Aug-24 19:12 112 0 gusting 1 16.1
2016-Aug-24 19:02 16.1
2016-Aug-24 18:52 16.1
2016-Aug-24 18:42 16.1
2016-Aug-24 18:32 338 0 gusting 1 16.1
2016-Aug-24 18:22 16.1
2016-Aug-24 18:12 16.1
2016-Aug-24 18:02 338 2 gusting 4 16.1
2016-Aug-24 17:52 335 1 gusting 4 16.1
2016-Aug-24 17:42 315 0 gusting 0 16.7
2016-Aug-24 17:32 315 1 gusting 2 16.7
2016-Aug-24 17:22 315 1 gusting 5 16.7
2016-Aug-24 17:12 315 5 gusting 5 16.7
2016-Aug-24 17:02 248 4 gusting 5 16.7
2016-Aug-24 16:52 248 1 gusting 6 16.7
2016-Aug-24 16:42 270 3 gusting 6 16.7
2016-Aug-24 16:32 225 6 gusting 7 16.7
2016-Aug-24 16:22 254 7 gusting 11 16.7
2016-Aug-24 16:12 218 7 gusting 13 16.7
2016-Aug-24 16:02 233 6 gusting 11 16.7
2016-Aug-24 15:52 225 10 gusting 13 16.7
2016-Aug-24 15:42 213 10 gusting 14 16.7
2016-Aug-24 15:32 208 10 gusting 14 16.7
2016-Aug-24 15:22 214 11 gusting 18 16.7
2016-Aug-24 15:12 207 10 gusting 17 16.7
2016-Aug-24 15:02 220 11 gusting 17 16.7
2016-Aug-24 14:52 225 8 gusting 19 16.7
2016-Aug-24 14:42 225 14 gusting 17 16.7
2016-Aug-24 14:32 202 6 gusting 14 16.7
2016-Aug-24 14:22 248 14 gusting 19 16.7
2016-Aug-24 14:12 220 14 gusting 19 16.7
2016-Aug-24 14:02 202 13 gusting 25 16.7
2016-Aug-24 13:52 198 17 gusting 24 16.7
2016-Aug-24 13:42 215 18 gusting 27 16.7
2016-Aug-24 13:32 199 16 gusting 20 16.7
2016-Aug-24 13:22 215 10 gusting 26 16.7
2016-Aug-24 13:12 201 12 gusting 20 16.7
2016-Aug-24 13:02 211 12 gusting 21 16.7
2016-Aug-24 12:52 205 9 gusting 15 16.7
2016-Aug-24 12:42 183 5 gusting 8 16.1
2016-Aug-24 12:32 169 5 gusting 10 16.1
2016-Aug-24 12:22 135 4 gusting 6 16.1
2016-Aug-24 12:12 137 1 gusting 7 16.1
2016-Aug-24 12:02 154 4 gusting 13 16.1
2016-Aug-24 11:52 130 4 gusting 8 16.1
2016-Aug-24 11:42 145 4 gusting 6 16.1
2016-Aug-24 11:32 171 4 gusting 6 15.6
2016-Aug-24 11:22 132 6 gusting 8 15.6
2016-Aug-24 11:12 196 4 gusting 8 15.6
2016-Aug-24 11:02 246 2 gusting 5 15.6
2016-Aug-24 10:52 351 2 gusting 8 15.6
2016-Aug-24 10:42 120 7 gusting 10 15.6
2016-Aug-24 10:32 159 3 gusting 6 16.1
2016-Aug-24 10:22 107 4 gusting 6 16.1
2016-Aug-24 10:12 067 4 gusting 6 16.1
2016-Aug-24 10:02 126 6 gusting 6 16.1
2016-Aug-24 09:52 161 2 gusting 6 16.1
2016-Aug-24 09:42 225 2 gusting 8 16.1
2016-Aug-24 09:32 221 6 gusting 7 16.1
2016-Aug-24 09:22 201 7 gusting 11 16.7
2016-Aug-24 09:12 199 5 gusting 7 16.7
2016-Aug-24 09:02 196 3 gusting 6 16.7
2016-Aug-24 08:52 168 6 gusting 8 16.7
2016-Aug-24 08:42 174 8 gusting 13 16.7
2016-Aug-24 08:32 170 8 gusting 14 16.7
2016-Aug-24 08:22 189 11 gusting 14 16.7
2016-Aug-24 08:12 158 11 gusting 15 16.7
2016-Aug-24 08:02 171 11 gusting 14 16.7
2016-Aug-24 07:52 164 9 gusting 13 16.1
2016-Aug-24 07:42 150 8 gusting 13 16.1
2016-Aug-24 07:32 161 9 gusting 13 16.1
2016-Aug-24 07:22 139 12 gusting 17 16.1
2016-Aug-24 07:12 112 10 gusting 14 16.1
2016-Aug-24 07:02 121 11 gusting 13 16.1
2016-Aug-24 06:52 135 11 gusting 13 15.6
2016-Aug-24 06:42 116 8 gusting 13 15.6
2016-Aug-24 06:37 119 5 gusting 6 15.6
2016-Aug-24 06:32 119 9 gusting 12 15.6
2016-Aug-24 06:27 150 6 gusting 5 15.6
2016-Aug-24 06:17 136 5 gusting 7 15.6
2016-Aug-24 06:12 112 5 gusting 6 15.6
2016-Aug-24 06:07 135 4 gusting 6 15.6
2016-Aug-24 06:02 113 4 gusting 6 15.6
2016-Aug-24 05:57 138 4 gusting 5 15.6
2016-Aug-24 05:52 138 6 gusting 7 15.0
2016-Aug-24 05:47 158 4 gusting 5 15.0
2016-Aug-24 05:42 135 5 gusting 5 15.0
2016-Aug-24 05:37 180 4 gusting 4 15.0
2016-Aug-24 05:32 140 2 gusting 5 15.0
2016-Aug-24 05:27 198 4 gusting 5 15.0
2016-Aug-24 05:22 223 3 gusting 6 15.0
2016-Aug-24 05:17 158 4 gusting 5 15.0
2016-Aug-24 05:12 158 4 gusting 5 15.0
2016-Aug-24 05:07 138 4 gusting 5 15.0
2016-Aug-24 05:02 137 6 gusting 8 15.0
2016-Aug-24 04:57 176 5 gusting 6 15.0
2016-Aug-24 04:52 147 4 gusting 6 15.0
2016-Aug-24 04:47 180 6 gusting 6 15.0
2016-Aug-24 04:42 163 4 gusting 6 15.0
2016-Aug-24 04:37 141 4 gusting 6 15.0
2016-Aug-24 04:32 161 5 gusting 6 15.0
2016-Aug-24 04:27 214 6 gusting 6 15.0
2016-Aug-24 04:22 197 11 gusting 13 15.0
2016-Aug-24 04:17 202 5 gusting 6 15.0
2016-Aug-24 04:12 178 5 gusting 5 15.0
2016-Aug-24 04:07 197 2 gusting 4 15.0
2016-Aug-24 04:02 137 5 gusting 6 15.0
2016-Aug-24 03:57 078 4 gusting 6 15.0
2016-Aug-24 03:52 180 5 gusting 6 15.0
2016-Aug-24 03:47 176 5 gusting 6 15.0
2016-Aug-24 03:42 174 9 gusting 12 15.0
2016-Aug-24 03:37 161 5 gusting 7 15.0
2016-Aug-24 03:32 183 6 gusting 6 15.0
2016-Aug-24 03:27 180 5 gusting 6 15.0
2016-Aug-24 03:22 199 8 gusting 12 15.0
2016-Aug-24 03:17 197 6 gusting 7 15.0
2016-Aug-24 03:12 112 11 gusting 12 15.0
2016-Aug-24 03:07 120 5 gusting 5 15.0
2016-Aug-24 03:02 179 5 gusting 6 15.0
2016-Aug-24 02:57 140 5 gusting 6 15.0
2016-Aug-24 02:52 176 6 gusting 8 15.0
2016-Aug-24 02:47 154 4 gusting 6 15.0
2016-Aug-24 02:42 205 6 gusting 8 15.0
2016-Aug-24 02:37 141 5 gusting 6 15.0
2016-Aug-24 02:32 196 4 gusting 6 15.0
2016-Aug-24 02:27 161 4 gusting 5 15.0
2016-Aug-24 02:22 158 5 gusting 6 15.0
2016-Aug-24 02:17 158 3 gusting 4 15.0
2016-Aug-24 02:12 197 6 gusting 7 15.0
2016-Aug-24 02:07 200 4 gusting 5 15.0
2016-Aug-24 02:02 200 5 gusting 10 15.0
2016-Aug-24 01:57 143 2 gusting 6 15.0
2016-Aug-24 01:52 122 4 gusting 6 15.0
2016-Aug-24 01:47 175 4 gusting 5 15.0
2016-Aug-24 01:42 156 4 gusting 5 15.0
2016-Aug-24 01:37 140 4 gusting 6 15.0
2016-Aug-24 01:32 161 4 gusting 5 15.0
2016-Aug-24 01:27 178 4 gusting 4 15.0
2016-Aug-24 01:22 204 5 gusting 8 15.0
2016-Aug-24 01:17 161 5 gusting 6 15.0
2016-Aug-24 01:12 160 7 gusting 8 15.0
2016-Aug-24 01:07 200 2 gusting 5 15.0
2016-Aug-24 01:02 200 6 gusting 6 15.0
2016-Aug-24 00:57 162 4 gusting 6 15.0
2016-Aug-24 00:52 202 5 gusting 6 15.6
2016-Aug-24 00:47 193 4 gusting 5 15.6
2016-Aug-24 00:42 175 8 gusting 10 15.6
2016-Aug-24 00:37 180 4 gusting 5 15.6
2016-Aug-24 00:32 180 5 gusting 6 15.6
2016-Aug-24 00:27 158 4 gusting 6 15.6
2016-Aug-24 00:22 180 5 gusting 6 15.6
2016-Aug-24 00:17 202 5 gusting 5 15.6
2016-Aug-24 00:12 202 1 gusting 2 15.6
2016-Aug-24 00:07 198 3 gusting 5 15.6
2016-Aug-24 00:02 180 4 gusting 5 15.6
2016-Aug-23 23:57 197 3 gusting 4 15.6
2016-Aug-23 23:52 202 4 gusting 4 15.0
2016-Aug-23 23:47 158 2 gusting 4 15.0
2016-Aug-23 23:42 184 3 gusting 4 15.6
2016-Aug-23 23:37 202 3 gusting 5 15.0
2016-Aug-23 23:32 221 5 gusting 6 15.0
2016-Aug-23 23:27 165 4 gusting 5 15.0
2016-Aug-23 23:22 180 3 gusting 4 15.0
2016-Aug-23 23:17 160 3 gusting 4 15.0
2016-Aug-23 23:12 197 2 gusting 2 15.0
2016-Aug-23 23:07 156 2 gusting 2 15.0
2016-Aug-23 23:02 200 2 gusting 5 15.0
2016-Aug-23 22:57 164 2 gusting 4 15.0
2016-Aug-23 22:52 170 2 gusting 4 15.0
2016-Aug-23 22:47 193 1 gusting 2 15.0
2016-Aug-23 22:42 154 4 gusting 5 15.0
2016-Aug-23 22:37 176 2 gusting 2 15.0
2016-Aug-23 22:32 180 1 gusting 2 15.0
2016-Aug-23 22:27 143 2 gusting 2 15.0
2016-Aug-23 22:22 177 2 gusting 4 15.0
2016-Aug-23 22:17 156 3 gusting 4 15.0
2016-Aug-23 22:12 158 1 gusting 2 15.0
2016-Aug-23 22:07 180 1 gusting 5 15.0
2016-Aug-23 22:02 202 2 gusting 4 15.0
2016-Aug-23 21:57 221 2 gusting 2 15.0
2016-Aug-23 21:52 147 4 gusting 4 15.0
2016-Aug-23 21:47 180 1 gusting 1 15.0
2016-Aug-23 21:42 180 2 gusting 2 15.0
2016-Aug-23 21:37 197 1 gusting 1 15.0
2016-Aug-23 21:32 184 1 gusting 1 15.0
2016-Aug-23 21:27 194 1 gusting 1 15.0
2016-Aug-23 21:22 138 1 gusting 1 15.0
2016-Aug-23 21:17 175 1 gusting 1 15.0
2016-Aug-23 21:12 180 1 gusting 2 15.6
2016-Aug-23 21:07 202 3 gusting 6 15.6
2016-Aug-23 21:02 202 3 gusting 4 15.6
2016-Aug-23 20:57 202 2 gusting 4 15.6
2016-Aug-23 20:52 211 4 gusting 5 15.6
2016-Aug-23 20:47 174 3 gusting 5 15.6
2016-Aug-23 20:42 202 4 gusting 5 15.6
2016-Aug-23 20:37 220 3 gusting 5 15.6
2016-Aug-23 20:32 202 4 gusting 5 15.6
2016-Aug-23 20:27 202 2 gusting 5 15.6
2016-Aug-23 20:22 184 3 gusting 4 15.6
2016-Aug-23 20:17 202 4 gusting 4 15.6
2016-Aug-23 20:12 202 2 gusting 2 15.6
2016-Aug-23 20:07 183 1 gusting 1 15.6
2016-Aug-23 20:02 206 2 gusting 4 16.1
2016-Aug-23 19:57 196 2 gusting 2 16.1
2016-Aug-23 19:52 202 2 gusting 4 16.1
2016-Aug-23 19:47 208 1 gusting 1 16.1
2016-Aug-23 19:42 225 1 gusting 1 16.1
2016-Aug-23 19:37 197 1 gusting 1 16.1
2016-Aug-23 19:27 185 0 gusting 1 16.1
2016-Aug-23 19:22 202 0 gusting 1 16.7
2016-Aug-23 19:17 202 1 gusting 1 16.7
2016-Aug-23 19:07 176 0 gusting 0 16.7
2016-Aug-23 19:02 135 1 gusting 1 16.7
2016-Aug-23 18:57 147 0 gusting 1 16.7
2016-Aug-23 18:52 202 0 gusting 0 16.7
2016-Aug-23 18:47 202 0 gusting 0 16.7
2016-Aug-23 18:42 180 16.7
2016-Aug-23 18:37 248 16.7
2016-Aug-23 18:32 248 0 gusting 1 16.7
2016-Aug-23 18:27 248 1 gusting 1 16.7
2016-Aug-23 18:22 270 2 gusting 2 16.7
2016-Aug-23 18:17 270 4 gusting 4 16.7
2016-Aug-23 18:12 255 2 gusting 2 16.7
2016-Aug-23 18:07 251 2 gusting 4 16.7
2016-Aug-23 18:02 274 2 gusting 4 16.7
2016-Aug-23 17:57 248 2 gusting 5 16.7
2016-Aug-23 17:52 254 3 gusting 6 16.7
2016-Aug-23 17:47 254 4 gusting 5 17.2
2016-Aug-23 17:42 287 4 gusting 4 17.2
2016-Aug-23 17:37 264 2 gusting 4 17.2
2016-Aug-23 17:32 248 2 gusting 2 17.2
2016-Aug-23 17:27 263 2 gusting 4 17.8
2016-Aug-23 17:22 262 3 gusting 4 17.8
2016-Aug-23 17:17 270 1 gusting 1 17.8
2016-Aug-23 17:12 270 2 gusting 4 17.8
2016-Aug-23 17:07 248 2 gusting 4 17.8
2016-Aug-23 17:02 270 3 gusting 4 17.8
2016-Aug-23 16:57 286 1 gusting 1 18.3
2016-Aug-23 16:52 270 1 gusting 1 18.3
2016-Aug-23 16:47 270 1 gusting 1 18.3
2016-Aug-23 16:42 257 2 gusting 4 17.8
2016-Aug-23 16:37 270 2 gusting 4 17.8
2016-Aug-23 16:32 286 2 gusting 4 17.8
2016-Aug-23 16:27 288 1 gusting 4 17.8
2016-Aug-23 16:22 266 2 gusting 4 18.3
2016-Aug-23 16:17 315 2 gusting 4 18.9
2016-Aug-23 16:12 288 3 gusting 4 18.9
2016-Aug-23 16:07 268 2 gusting 2 19.4
2016-Aug-23 16:02 317 1 gusting 2 19.4
2016-Aug-23 15:57 315 2 gusting 4 19.4
2016-Aug-23 15:52 292 0 gusting 2 19.4
2016-Aug-23 15:47 334 2 gusting 2 20.0
2016-Aug-23 15:42 334 2 gusting 2 20.6
2016-Aug-23 15:37 338 1 gusting 1 21.1
2016-Aug-23 15:32 356 3 gusting 5 21.1
2016-Aug-23 15:27 343 2 gusting 2 21.7
2016-Aug-23 15:22 334 1 gusting 1 22.8
2016-Aug-23 15:17 315 0 gusting 2 22.8
2016-Aug-23 15:12 357 2 gusting 4 23.3
2016-Aug-23 15:07 315 2 gusting 2 22.8
2016-Aug-23 15:02 317 1 gusting 2 21.7
2016-Aug-23 14:57 022 1 gusting 2 21.7
2016-Aug-23 14:52 22.8
2016-Aug-23 14:47 347 1 gusting 2 23.3
2016-Aug-23 14:42 340 1 gusting 2 22.2
2016-Aug-23 14:37 329 1 gusting 1 20.6
2016-Aug-23 14:32 311 2 gusting 4 20.6
2016-Aug-23 14:27 20.0
2016-Aug-23 14:22 307 1 gusting 1 20.6
2016-Aug-23 14:17 21.1
2016-Aug-23 14:12 22.2
2016-Aug-23 14:07 022 2 gusting 2 22.2
2016-Aug-23 14:02 317 2 gusting 2 21.7
2016-Aug-23 13:57 278 2 gusting 2 20.6
2016-Aug-23 13:52 353 1 gusting 2 19.4
2016-Aug-23 13:47 348 2 gusting 2 19.4
2016-Aug-23 13:42 349 1 gusting 4 19.4
2016-Aug-23 13:37 046 2 gusting 4 19.4
2016-Aug-23 13:32 025 1 gusting 1 19.4
2016-Aug-23 13:27 338 2 gusting 2 19.4
2016-Aug-23 13:22 19.4
2016-Aug-23 13:17 342 2 gusting 4 18.9
2016-Aug-23 13:12 295 4 gusting 6 18.9
2016-Aug-23 13:07 298 2 gusting 4 18.9
2016-Aug-23 13:02 336 3 gusting 4 19.4
2016-Aug-23 12:57 329 1 gusting 1 19.4
2016-Aug-23 12:52 315 2 gusting 4 19.4
2016-Aug-23 12:47 323 1 gusting 4 20.0
2016-Aug-23 12:42 310 1 gusting 4 19.4
2016-Aug-23 12:37 351 2 gusting 4 18.9
2016-Aug-23 12:32 323 1 gusting 4 18.3
2016-Aug-23 12:27 296 1 gusting 4 18.3
2016-Aug-23 12:22 315 1 gusting 1 18.3
2016-Aug-23 12:17 345 1 gusting 1 18.3
2016-Aug-23 12:12 276 1 gusting 1 18.3
2016-Aug-23 12:07 18.3
2016-Aug-23 12:02 18.3
2016-Aug-23 11:57 299 1 gusting 1 18.3
2016-Aug-23 11:52 344 0 gusting 1 18.3
2016-Aug-23 11:47 325 1 gusting 1 17.8
2016-Aug-23 11:42 296 0 gusting 1 17.8
2016-Aug-23 11:37 302 2 gusting 2 17.8
2016-Aug-23 11:32 308 1 gusting 2 17.8
2016-Aug-23 11:27 263 1 gusting 1 17.8
2016-Aug-23 11:22 285 2 gusting 2 17.8
2016-Aug-23 11:17 343 0 gusting 1 17.8
2016-Aug-23 11:12 346 1 gusting 1 17.8
2016-Aug-23 11:07 332 1 gusting 4 17.8
2016-Aug-23 11:02 18.3
2016-Aug-23 10:57 18.3
2016-Aug-23 10:52 329 1 gusting 1 18.3
2016-Aug-23 10:47 008 2 gusting 2 17.8
2016-Aug-23 10:42 302 3 gusting 4 17.8
2016-Aug-23 10:37 300 2 gusting 4 17.8
2016-Aug-23 10:32 304 1 gusting 1 17.8
2016-Aug-23 10:27 338 1 gusting 2 17.8
2016-Aug-23 10:22 105 6 gusting 6 17.8
2016-Aug-23 10:17 315 2 gusting 2 17.8
2016-Aug-23 10:12 288 3 gusting 6 17.2
2016-Aug-23 10:07 289 2 gusting 4 17.2
2016-Aug-23 10:02 335 5 gusting 6 17.2
2016-Aug-23 09:57 303 1 gusting 2 17.2
2016-Aug-23 09:52 284 2 gusting 4 17.2
2016-Aug-23 09:47 202 0 gusting 1 13.9
2016-Aug-22 21:22 202 0 gusting 0 13.9
2016-Aug-22 21:17 197 0 gusting 0 13.9
2016-Aug-22 21:12 180 0 gusting 0 13.9
2016-Aug-22 21:07 158 13.9
2016-Aug-22 21:02 158 0 gusting 0 13.9